Showing default

COSMOS 86, 1584

Orbit data source: Space-Track

COSMOS 86, 1584 is a payload satellite owned by OKB-10 (CIS) in LEO that was launched on Sat, 18 Sep 1965 UTC via a KOSMOS 65S3 launch vehicle from the Tyuratam Missile And Space Complex (TTMTR). Payload-class satellites include a variety of spacecraft equipped with specific instruments for various scientific and technological missions. These include communications satellites like Starlink; space stations such as the ISS; scientific satellites like the Hubble; Earth observation satellites from companies like Planet Labs, Umbra, and HawkEye 360; GPS; miniature CubeSats for education and research; and military/defense satellites.

Loading next visibility...
Identifier
1584, 1965-073A
Orbit
LEO
Country
Flag of CISCIS
Related business
Manufacturer
OKB-10
Mission
Spacecraft
Bus & Motor
STRELA-1 11F610, Unknown motor
Mass
50 kg wet, 50 kg dry
Launch date (UTC)
1965-09-18 (60 years ago)
Launch vehicle
KOSMOS 65S3
Launch site
Tyuratam Missile And Space Complex (TTMTR)
Object type
Payload
Rocket body
Debris
Shape & HBR
Unknown
Radar Cross Section
Medium (>0.1 m² and <1 m²)

Expand to show TLE details & history
Last TLE update: 10 hours ago

TLE from 10 hours ago
0 COSMOS 86
1 01584U 65073A   25290.81121576 -.00000086  00000-0  57613-4 0  9999
2 01584  56.0588  77.0518 0212140 315.8152 194.7476 12.51914431747091
Epoch: 2025-10-17T19:28Z
TLE epoch observation values (Epoch: 2025-10-17T19:28:09.041Z)
Latitude
24.59137°
Longitude
-79.38726°
Altitude
1,618.606 km
Speed
6.991 km/s
True Right ascension
15h 56m 48s
True Declination
24° 28' 32"
Sunlit
Object was in daylight at epoch
Visualization orbit readout
Latitude
Unknown
Longitude
Unknown
Altitude
Unknown
Speed
Unknown
Apparent Right ascension
Unknown
Apparent Declination
Unknown
Sunlit
N/A
Visualization observer readout
Local Sidereal Time
00:10:49
Azimuth
Unknown
Elevation
Unknown
Doppler factor
Unknown
Orbital elements
Apogee altitude
1,622.52 km
Perigee altitude
1,290.12 km
Semi-major axis
7,834.457 km
Eccentricity
0.02121
Inclination
56.0588°
RAAN
77.0518°
Arg. of periapsis
315.8152°
True anomaly
194.14427°
Mean anomaly
194.7476°
Eccentric anomaly
194.44441°
Mean motion
3.1299 °/min
Orbital period
115.02 mins
BSTAR
0.000057613
Loading maneuver chart data...
Computing Atmospheric mass density...
Loading historical data...
Loading historical data...
Loading historical data...
Loading historical data...
Loading historical data...
Loading historical data...
Loading historical data...

Documentation

Showing up to 5 results
|